Weather History for Dunkirk, NY

Change the Weather History Date:

Saturday, February 2, 2013

  Actual Average Record
Temperature  
Mean Temperature 28 °F -  
Max Temperature 37 °F 34 °F 58 °F (1973)
Min Temperature 19 °F 18 °F -18 °F (1961)
Degree Days  
Heating Degree Days 37    
Moisture  
Dew Point 10 °F    
Average Humidity 49    
Maximum Humidity 93    
Minimum Humidity 37    
Precipitation  
Precipitation 0.01 in - - ()
Sea Level Pressure  
Sea Level Pressure 30.04 in    
Wind  
Wind Speed 13 mph (SSW)    
Max Wind Speed 20 mph    
Max Gust Speed 28 mph    
Visibility 4 miles    
Events Snow    
Averages and records for this station are not official NWS values.
T = Trace of Precipitation, MM = Missing Value Source: NWS Daily Summary

Daily Weather History Graph

Daily Weather History Graph

Search for Another Location

Airport:

Trip Planner

Search our weather history database for the weather conditions in past years. The results will help you decide how hot, cold, wet, or windy it might be!

Date:

Astronomy

Feb. 02, 2013 Rise Set
Actual Time 7:29 AM EST 5:32 PM EST
Civil Twilight 6:59 AM EST 6:02 PM EST
Nautical Twilight 6:26 AM EST 6:35 PM EST
Astronomical Twilight 5:53 AM EST 7:08 PM EST
Moon No Moon Rise 10:29 AM EST (2/2)
Length of Visible Light 11h 02m
Length of Day
10h 02m
Waning Gibbous, 60% of the Moon is Illuminated
Feb 2
Waning Gibbous
Feb 3
Last Quarter
Feb 10
New
Feb 17
First Quarter
Feb 25
Full

Hourly Weather History & Observations

Time (EST) Temp. Windchill Dew Point Humidity Pressure Visibility Wind Dir Wind Speed Gust Speed Precip Events Conditions
12:53 AM 25.0 °F 12.6 °F 6.1 °F 45% 30.22 in 10.0 mi SSW 15.0 mph - N/A   Overcast
1:53 AM 26.1 °F 14.0 °F 5.0 °F 41% 30.20 in 10.0 mi SSW 15.0 mph - N/A   Overcast
2:53 AM 25.0 °F 13.1 °F 3.9 °F 41% 30.21 in 10.0 mi SSW 13.8 mph - N/A   Mostly Cloudy
3:53 AM 24.1 °F 11.5 °F 3.9 °F 42% 30.19 in 10.0 mi SSW 15.0 mph 21.9 mph N/A   Mostly Cloudy
4:53 AM 24.1 °F 13.1 °F 3.0 °F 40% 30.18 in 10.0 mi SSW 11.5 mph - N/A   Overcast
5:53 AM 23.0 °F 10.1 °F 3.9 °F 44% 30.16 in 10.0 mi SSW 15.0 mph - N/A   Overcast
7:53 AM 21.9 °F 7.3 °F 3.9 °F 46% 30.14 in 10.0 mi South 18.4 mph 25.3 mph N/A   Overcast
8:38 AM 21.2 °F 7.8 °F 5.0 °F 50% 30.10 in 2.5 mi South 15.0 mph 26.5 mph 0.00 in Snow Light Snow
8:46 AM 21.2 °F 6.4 °F 5.0 °F 50% 30.11 in 4.0 mi South 18.4 mph 25.3 mph 0.00 in Snow Light Snow
8:53 AM 21.9 °F 6.9 °F 5.0 °F 48% 30.14 in 3.0 mi South 19.6 mph 26.5 mph 0.00 in Snow Light Snow
9:13 AM 21.2 °F 7.8 °F 6.8 °F 54% 30.10 in 2.0 mi South 15.0 mph 25.3 mph 0.00 in Snow Light Snow
9:24 AM 24.8 °F 12.9 °F 6.8 °F 46% 30.10 in 3.0 mi South 13.8 mph 23.0 mph 0.00 in Snow Light Snow
9:43 AM 23.0 °F 8.7 °F 6.8 °F 50% 30.09 in 2.0 mi South 18.4 mph 27.6 mph 0.00 in Snow Light Snow
9:51 AM 23.0 °F 9.6 °F 6.8 °F 50% 30.08 in 2.0 mi South 16.1 mph 25.3 mph 0.00 in Snow Light Snow
9:53 AM 23.0 °F 9.6 °F 7.0 °F 50% 30.12 in 2.0 mi South 16.1 mph 25.3 mph 0.00 in Snow Light Snow
9:57 AM 24.8 °F 11.5 °F 6.8 °F 46% 30.08 in 3.0 mi South 17.3 mph 25.3 mph 0.00 in Snow Light Snow
10:53 AM 27.0 °F 14.7 °F 7.0 °F 43% 30.10 in 4.0 mi SSW 16.1 mph - 0.00 in Snow Light Snow
11:03 AM 26.6 °F 14.7 °F 8.6 °F 47% 30.06 in 2.0 mi SSW 15.0 mph 26.5 mph 0.00 in Snow Light Snow
11:39 AM 28.4 °F 17.0 °F 8.6 °F 43% 30.06 in 3.0 mi SSW 15.0 mph 20.7 mph 0.00 in Snow Light Snow
11:53 AM 28.0 °F 15.7 °F 9.0 °F 45% 30.08 in 3.0 mi SSW 17.3 mph 23.0 mph 0.00 in Snow Light Snow
12:44 PM 28.4 °F 17.0 °F 10.4 °F 47% 30.02 in 1.8 mi SSW 15.0 mph 20.7 mph 0.00 in Snow Light Snow
12:53 PM 28.9 °F 18.6 °F 10.0 °F 45% 30.05 in 1.5 mi South 12.7 mph 20.7 mph 0.00 in Snow Light Snow
1:33 PM 30.2 °F 20.2 °F 10.4 °F 44% 30.00 in 2.5 mi SSW 12.7 mph 19.6 mph 0.00 in Snow Light Snow
1:40 PM 32.0 °F 23.6 °F 10.4 °F 41% 29.99 in 3.0 mi South 10.4 mph 18.4 mph 0.00 in Snow Light Snow
1:53 PM 30.9 °F 21.2 °F 10.9 °F 43% 30.01 in 3.0 mi South 12.7 mph - 0.00 in Snow Light Snow
2:03 PM 30.2 °F 18.9 °F 10.4 °F 44% 29.99 in 2.5 mi South 16.1 mph - 0.00 in Snow Light Snow
2:17 PM 32.0 °F 24.2 °F 12.2 °F 44% 29.98 in 2.0 mi South 9.2 mph - 0.00 in Snow Light Snow
2:30 PM 32.0 °F 24.2 °F 12.2 °F 44% 29.98 in 1.5 mi South 9.2 mph - 0.00 in Snow Light Snow
2:53 PM 33.1 °F 25.5 °F 12.0 °F 42% 30.00 in 2.5 mi South 9.2 mph - 0.00 in Snow Light Snow
2:59 PM 33.8 °F 26.4 °F 12.2 °F 41% 29.97 in 3.0 mi South 9.2 mph - 0.00 in Snow Light Snow
3:12 PM 35.6 °F 28.6 °F 12.2 °F 38% 29.98 in 2.5 mi SSW 9.2 mph - 0.00 in Snow Light Snow
3:22 PM 33.8 °F 25.8 °F 12.2 °F 41% 29.97 in 1.5 mi SSW 10.4 mph - 0.00 in Snow Light Snow
3:53 PM 34.0 °F 27.2 °F 12.9 °F 42% 30.00 in 1.5 mi SSW 8.1 mph - 0.00 in Snow Light Snow
4:11 PM 33.8 °F 25.8 °F 12.2 °F 41% 29.97 in 1.5 mi SSW 10.4 mph - 0.00 in Snow Light Snow
4:20 PM 33.8 °F 27.7 °F 14.0 °F 44% 29.97 in 2.5 mi SSW 6.9 mph - 0.00 in Snow Light Snow
4:27 PM 35.6 °F 29.2 °F 12.2 °F 38% 29.97 in 3.0 mi SSW 8.1 mph - 0.00 in Snow Light Snow
4:53 PM 35.1 °F 31.0 °F 12.9 °F 40% 29.99 in 8.0 mi SSW 4.6 mph - 0.00 in   Overcast
5:53 PM 35.1 °F 31.0 °F 12.0 °F 39% 29.99 in 10.0 mi South 4.6 mph - N/A   Overcast
6:53 PM 36.0 °F 32.1 °F 12.0 °F 37% 29.99 in 10.0 mi South 4.6 mph - N/A   Overcast
7:53 PM 33.1 °F 25.5 °F 12.0 °F 42% 29.99 in 10.0 mi South 9.2 mph - N/A   Overcast
8:53 PM 32.0 °F 24.8 °F 12.9 °F 45% 29.99 in 6.0 mi South 8.1 mph - 0.00 in Snow Light Snow
9:20 PM 35.6 °F 31.7 °F 14.0 °F 41% 29.96 in 2.5 mi South 4.6 mph - 0.00 in Snow Light Snow
9:31 PM 33.8 °F 29.6 °F 15.8 °F 48% 29.96 in 1.2 mi SSW 4.6 mph - 0.00 in Snow Light Snow
9:38 PM 37.4 °F 31.4 °F 15.8 °F 41% 29.96 in 1.0 mi SSW 8.1 mph - 0.00 in Snow Light Snow
9:53 PM - - - N/A% 29.96 in 0.8 mi South 6.9 mph - 0.00 in   Unknown
10:03 PM - - - N/A% 29.96 in 1.0 mi Calm Calm - 0.00 in   Unknown
10:20 PM 19.4 °F 8.6 °F 15.8 °F 86% 29.96 in 1.2 mi NNW 9.2 mph - 0.00 in Snow Light Snow
10:34 PM 19.4 °F 9.5 °F 15.8 °F 86% 29.96 in 1.8 mi NNW 8.1 mph - 0.00 in Snow Light Snow
10:53 PM 19.9 °F 13.4 °F 17.1 °F 89% 29.99 in 1.5 mi NNW 4.6 mph - 0.00 in Snow Light Snow
11:14 PM 19.4 °F - 17.6 °F 93% 29.95 in 1.0 mi Calm Calm - 0.00 in Snow Light Snow
11:23 PM 19.4 °F - 17.6 °F 93% 29.95 in 1.2 mi Calm Calm - 0.00 in Snow Light Snow
11:53 PM 28.9 °F - 17.1 °F 61% 29.98 in 1.2 mi Calm Calm - 0.01 in Snow Light Snow